Location: Naloco
(16.5478°S, 37.1017°E)
Time: 01:09:06
(UTC+00:00)

Cosmos 1805 Rocket - Pass Details

Date: 13 August 2020
Orbit: 605 x 631 km, 82.5° (Epoch: 23 September)

Event Time Altitude Azimuth Distance (km) Brightness Sun altitude
Rises 16:46:16 0° 187° (S) 2,892 7.0 -20.5°
Reaches altitude 10° 16:48:29 10° 189° (S) 1,985 6.1 -21.0°
Maximum altitude 16:52:53 75° 274° (W) 643 3.7 -22.0°
Drops below altitude 10° 16:57:15 10° 359° (N) 1,980 6.2 -23.1°
Sets 16:59:29 0° 1° (N) 2,883 7.1 -23.6°
